TimeEDT,TemperatureF,Dew PointF,Humidity,Sea Level PressureIn,VisibilityMPH,Wind Direction,Wind SpeedMPH,Gust SpeedMPH,PrecipitationIn,Events,Conditions,WindDirDegrees,DateUTC
12:53 AM,73.9,64.0,71,30.09,10.0,North,3.5,-,N/A,,Clear,10,2013-07-14 04:53:00
1:53 AM,72.0,64.9,78,30.09,10.0,NW,3.5,-,N/A,,Clear,320,2013-07-14 05:53:00
2:53 AM,71.1,64.9,81,30.09,10.0,NW,4.6,-,N/A,,Clear,310,2013-07-14 06:53:00
3:53 AM,70.0,66.0,87,30.09,10.0,Calm,Calm,-,N/A,,Clear,0,2013-07-14 07:53:00
4:53 AM,70.0,64.9,84,30.09,10.0,Calm,Calm,-,N/A,,Clear,0,2013-07-14 08:53:00
5:53 AM,70.0,66.0,87,30.11,10.0,NW,3.5,-,N/A,,Clear,310,2013-07-14 09:53:00
6:53 AM,70.0,66.0,87,30.13,10.0,Calm,Calm,-,N/A,,Clear,0,2013-07-14 10:53:00
7:53 AM,73.0,66.9,81,30.15,10.0,Calm,Calm,-,N/A,,Clear,0,2013-07-14 11:53:00
8:53 AM,77.0,66.9,71,30.16,10.0,East,4.6,-,N/A,,Clear,100,2013-07-14 12:53:00
9:53 AM,79.0,68.0,69,30.16,10.0,ESE,4.6,-,N/A,,Clear,110,2013-07-14 13:53:00
10:53 AM,82.0,69.1,65,30.16,10.0,South,3.5,-,N/A,,Clear,170,2013-07-14 14:53:00
11:53 AM,84.0,68.0,58,30.16,10.0,Calm,Calm,-,N/A,,Clear,0,2013-07-14 15:53:00
12:53 PM,87.1,69.1,55,30.15,10.0,Variable,6.9,-,N/A,,Partly Cloudy,0,2013-07-14 16:53:00
1:53 PM,87.1,70.0,57,30.15,10.0,South,8.1,-,N/A,,Scattered Clouds,170,2013-07-14 17:53:00
2:53 PM,89.1,68.0,50,30.14,10.0,Variable,5.8,-,N/A,,Scattered Clouds,0,2013-07-14 18:53:00
3:53 PM,90.0,68.0,48,30.14,10.0,ENE,8.1,-,N/A,,Mostly Cloudy,70,2013-07-14 19:53:00
4:53 PM,89.1,66.9,48,30.12,10.0,ESE,5.8,-,N/A,,Mostly Cloudy,120,2013-07-14 20:53:00
5:53 PM,89.1,68.0,50,30.12,10.0,East,6.9,-,N/A,,Partly Cloudy,100,2013-07-14 21:53:00
6:53 PM,89.1,69.1,52,30.11,10.0,ESE,5.8,-,N/A,,Clear,110,2013-07-14 22:53:00
7:53 PM,88.0,70.0,55,30.12,10.0,SE,6.9,-,0.00,Rain,Light Rain,140,2013-07-14 23:53:00
7:59 PM,80.6,73.4,79,30.16,2.0,SSE,17.3,27.6,0.08,Rain-Thunderstorm,Heavy Thunderstorms and Rain,150,2013-07-14 23:59:00
8:01 PM,77.0,73.4,89,30.17,0.8,SE,17.3,27.6,0.21,Rain-Thunderstorm,Heavy Thunderstorms and Rain,140,2013-07-15 00:01:00
8:14 PM,75.2,75.2,100,30.17,0.2,Calm,Calm,-,0.81,Fog-Rain-Thunderstorm,Heavy Thunderstorms and Rain,0,2013-07-15 00:14:00
8:22 PM,75.2,73.4,94,30.17,4.0,West,4.6,-,0.81,Rain-Thunderstorm,Light Thunderstorms and Rain,280,2013-07-15 00:22:00
8:47 PM,77.0,75.2,94,30.18,10.0,NNW,4.6,-,0.81,Thunderstorm,Mostly Cloudy,330,2013-07-15 00:47:00
8:53 PM,77.0,75.0,94,30.16,10.0,North,3.5,-,0.81,Thunderstorm,Scattered Clouds,350,2013-07-15 00:53:00
9:08 PM,75.2,73.4,94,30.17,10.0,Calm,Calm,-,N/A,,Partly Cloudy,0,2013-07-15 01:08:00
9:53 PM,77.0,75.0,94,30.17,10.0,Calm,Calm,-,N/A,,Clear,0,2013-07-15 01:53:00
10:53 PM,77.0,75.0,94,30.18,10.0,Calm,Calm,-,N/A,,Overcast,0,2013-07-15 02:53:00
11:53 PM,77.0,73.9,90,30.19,10.0,SE,3.5,-,N/A,,Mostly Cloudy,140,2013-07-15 03:53:00